CAPE
3222 3101 3100 2932 2933 2758 2722 2647 2668 2693 2622 2411 2370 2353 2372 2290 2180 2062 2114 2208 2258 2262 2225 2292 2262 2233 2183 2104 2227 1923 1854 1782 1765 1884 1749 1706 1608 1647 1227 1246 1190 827
3484 3264 3055 3150 3097 2918 3020 2838 2806 2747 2913 2706 2565 2544 2449 2342 2259 2117 2115 2121 2196 2178 2306 2391 2342 2248 2180 1982 2054 1847 1620 1784 1889 1725 1571 1705 1386 1335 1160 1126 1062 837
3753 3456 3250 3240 3177 3044 3048 3108 2978 2907 2984 2870 2739 2688 2541 2418 2380 2262 2194 2127 2082 2056 2302 2418 2378 2205 2158 2029 1974 1817 1643 1706 1670 1425 1308 1291 1169 1073 1088 1196 1157 1045
3950 3724 3430 3334 3294 3172 3076 3262 3094 2943 2891 2923 2846 2768 2611 2499 2465 2329 2308 2146 2038 1953 2215 2454 2431 2229 2142 2110 1923 1733 1626 1500 1318 1315 1241 1107 1224 961 806 937 1019 1012
3975 3868 3717 3530 3391 3274 3187 3370 3272 3067 2894 2875 2865 2856 2611 2463 2464 2372 2320 2295 2177 2083 2233 2437 2490 2248 2176 2118 1768 1690 1587 1358 1161 1157 1073 920 814 713 892 800 739 771
3920 3831 3772 3644 3509 3429 3319 3258 3317 3179 2970 2899 2895 2832 2737 2533 2408 2327 2320 2314 2228 2134 2230 2450 2537 2369 2258 1952 1786 1701 1560 1387 1147 1201 935 844 733 556 676 852 742 672
3978 3890 3805 3712 3645 3480 3362 3152 3129 3104 2973 2823 2893 2905 2812 2610 2440 2328 2278 2302 2212 2008 2146 2313 2354 2340 2103 1810 1767 1686 1484 1347 1136 987 836 717 609 532 436 408 641 662
3880 3938 3890 3775 3675 3526 3343 3232 3083 3018 3016 2755 2825 2960 2772 2540 2480 2324 2104 2110 1986 1937 1954 2160 2168 2171 2062 1728 1739 1596 1453 1178 1055 891 733 633 587 552 505 334 302 326
3965 4014 3983 3885 3729 3652 3459 3313 3235 3110 3020 2812 2713 2923 2628 2356 2301 2342 2262 2060 1932 1789 1806 1903 2063 2072 1928 1843 1715 1478 1264 1097 1021 940 795 680 635 614 552 341 325 216
4043 3936 3979 3871 3690 3701 3654 3471 3364 3216 3019 2833 2654 2845 2715 2309 2317 2388 2209 2012 1838 1795 1775 1777 1823 1854 1860 1827 1590 1417 1287 1160 1068 985 844 734 684 708 639 368 202 84
4087 4020 3882 3814 3734 3711 3777 3708 3510 3356 3044 2846 2722 2785 2704 2342 2217 2188 2225 1998 2000 1702 1651 1661 1780 1742 1850 1716 1530 1422 1297 1190 1113 976 857 765 792 813 667 458 141 18
4092 3894 3775 3760 3745 3712 3775 3794 3655 3435 3215 2715 2598 2770 2552 2266 2306 2326 2081 1948 1833 1744 1558 1469 1638 1914 1892 1752 1620 1494 1348 1194 1057 884 799 781 886 828 671 534 44 0
4054 3833 3658 3710 3675 3715 3730 3783 3727 3497 3290 3006 2631 2748 2423 2150 2387 2422 2099 1959 1932 1750 1601 1458 1543 1876 1856 1729 1574 1454 1298 1110 902 774 728 799 884 755 696 583 104 0
4006 3713 3532 3567 3634 3683 3732 3764 3721 3582 3335 2980 2754 2620 2448 2317 2482 2437 2184 2030 2067 1949 1845 1526 1311 1648 1694 1606 1478 1273 1066 921 802 751 722 797 786 703 744 623 195 0
4088 3705 3461 3420 3413 3587 3681 3695 3693 3647 3445 3008 2790 2664 2525 2352 2506 2470 2234 2156 2113 1952 1811 1579 1334 1390 1519 1566 1402 1256 1125 1029 868 761 727 710 708 730 749 663 262 0
4051 3825 3557 3458 3424 3480 3589 3659 3619 3590 3512 3176 2889 2737 2604 2416 2535 2492 2368 2382 2140 1970 1804 1525 1432 1399 1561 1540 1422 1266 1164 1038 877 766 669 616 685 809 865 718 392 13
3870 3776 3634 3556 3411 3341 3394 3524 3575 3578 3544 3255 2950 2772 2614 2489 2265 2524 2359 2356 2204 1985 1851 1665 1493 1384 1376 1503 1402 1278 1215 1056 849 733 595 593 770 846 884 836 501 316
3217 3511 3494 3404 3381 3272 3312 3367 3438 3504 3450 3272 3008 2739 2587 2462 2555 2547 2463 2342 2239 2047 2008 1905 1665 1486 1394 1501 1395 1319 1250 1082 818 669 567 716 958 966 978 908 615 397
2174 2882 3156 3164 3227 3237 3216 3179 3256 3407 3466 3326 3062 2843 2633 2663 2493 2479 2487 2401 2265 2128 2066 2057 1891 1667 1401 1383 1385 1310 1227 1085 839 634 654 978 1010 946 936 955 688 479
1590 1919 2574 2644 2948 3186 3042 2974 3068 3240 3385 3329 3117 2889 2698 2543 2403 2312 2430 2412 2339 2190 2070 2035 1949 1806 1486 1333 1248 1252 1176 1086 878 662 810 1032 1027 991 965 935 826 570
1410 1364 1548 2140 2603 2773 3034 2960 2988 3123 3256 3218 3066 2860 2678 2540 2426 2303 2268 2353 2324 2251 2140 2044 1928 1850 1628 1418 1248 1185 1145 1015 802 654 910 1038 1038 1049 984 869 829 679
1374 1494 1519 1895 2338 2546 2742 2654 2714 2968 3088 3103 3009 2877 2675 2519 2396 2297 2170 2155 2315 2209 2114 1996 1892 1832 1666 1422 1248 1178 1130 1001 750 677 884 1067 1077 1107 1008 858 870 694
1184 1694 1397 1469 1667 2193 2460 2529 2627 2888 3067 2977 2879 2811 2667 2492 2371 2286 2163 2133 2238 2122 2050 1970 1858 1788 1690 1579 1382 1257 1141 1024 823 690 896 1057 1149 1084 962 858 819 755
808 1078 1249 1554 1590 1877 2087 2506 2439 2682 2956 2844 2745 2664 2596 2466 2304 2164 2120 2141 2112 2074 2028 1889 1799 1764 1681 1565 1440 1393 1291 1137 1008 769 939 1109 1073 953 863 794 788 738
754 1038 1087 1040 1228 1835 2126 2217 2372 2484 2720 2711 2652 2564 2489 2413 2256 2080 2090 2060 2033 2022 1957 1798 1754 1746 1658 1532 1470 1372 1258 1174 1104 795 964 1131 1010 819 737 737 812 725
564 811 649 640 898 1323 1757 2041 2224 2332 2556 2591 2536 2466 2362 2301 2225 2121 2036 1985 1966 1906 1844 1768 1741 1730 1637 1500 1408 1304 1228 1224 1142 827 980 1078 938 772 699 691 819 799
Wind_Speed
43 39 33 29 31 34 36 34 33 32 32 30 28 26 25 27 26 25 26 28 28 29 29 28 32 33 32 29 29 29 28 28 28 28 27 27 25 26 24 22 21 20
43 41 38 36 38 39 39 36 35 33 33 31 29 28 27 27 26 25 26 28 29 30 30 29 31 34 34 31 30 31 30 29 29 28 28 27 26 25 24 23 22 22
40 42 41 39 38 36 38 39 37 35 33 31 30 30 29 28 27 26 26 28 30 31 32 31 31 34 35 33 31 31 31 31 29 29 29 27 27 26 25 24 24 23
38 40 39 36 35 36 37 39 38 35 33 32 31 32 32 29 28 27 26 28 29 31 33 34 33 34 35 34 32 31 32 32 30 29 29 28 27 27 27 27 25 23
35 37 36 35 34 35 36 37 37 35 34 34 34 35 34 30 28 28 27 28 29 31 33 35 35 35 35 33 32 32 33 32 32 30 29 29 28 28 27 28 27 25
35 33 33 34 34 34 35 35 36 36 36 35 36 38 35 32 29 28 28 28 30 31 34 36 36 36 36 33 31 32 34 33 32 32 31 30 29 28 27 28 28 26
38 35 33 33 34 35 36 37 37 38 37 37 39 38 37 34 31 29 28 28 30 31 34 36 37 37 36 33 30 32 34 35 33 32 31 30 30 29 28 27 27 27
39 37 34 34 35 37 37 38 38 39 40 40 39 39 37 34 32 31 29 29 31 32 33 36 36 37 38 35 32 32 35 35 33 33 31 30 31 29 28 29 26 23
42 39 36 34 35 36 36 37 38 39 42 41 39 40 38 35 34 32 29 30 32 33 34 35 37 37 38 37 34 33 36 36 34 33 32 31 33 31 29 29 28 26
41 39 38 37 35 35 35 36 37 38 42 41 40 42 39 36 35 34 30 31 33 34 35 36 37 37 39 38 36 35 36 36 34 33 32 32 32 32 30 29 30 nan
41 40 40 38 37 36 34 36 37 37 40 40 40 41 39 37 36 34 32 32 33 35 35 36 38 39 40 39 36 36 37 36 34 33 32 32 33 32 30 30 30 nan
40 41 42 40 38 37 36 36 36 37 39 40 40 40 41 38 36 35 35 33 33 36 35 36 38 40 41 39 37 37 37 36 34 33 32 33 33 33 31 31 nan nan
40 40 44 44 41 39 39 38 36 36 38 39 40 40 41 40 36 36 37 36 35 36 35 35 38 41 40 39 38 38 38 36 34 33 33 32 32 33 31 32 33 nan
45 43 44 45 43 41 42 40 38 38 38 40 41 41 41 40 38 37 39 40 38 36 35 36 38 40 40 39 37 38 37 35 35 35 34 33 33 33 32 33 34 nan
50 47 46 45 44 44 44 43 41 41 41 43 43 42 42 41 40 40 40 40 38 36 36 37 38 39 40 39 38 38 37 35 36 36 35 34 33 33 34 35 34 nan
50 48 47 46 45 44 46 47 45 44 44 44 44 42 43 43 42 43 42 40 38 37 37 38 38 38 41 45 40 36 36 35 35 35 35 34 34 34 35 35 34 nan
51 49 48 49 48 46 47 48 48 48 47 45 44 45 44 44 44 45 43 40 38 37 38 38 39 40 46 47 42 40 38 36 35 34 34 34 35 36 37 36 35 36
55 50 49 50 49 47 47 48 50 51 49 46 46 45 46 47 47 46 43 40 38 37 37 38 38 42 50 47 43 42 42 37 35 34 34 35 34 36 37 36 36 37
55 51 49 50 51 49 49 49 50 51 49 48 46 45 47 49 47 47 44 39 38 37 37 39 39 45 51 48 43 43 45 42 35 34 35 35 34 37 39 37 37 38
55 52 50 50 50 52 51 49 49 50 49 48 47 47 49 50 49 46 43 39 38 38 38 41 41 47 51 49 45 46 48 45 36 34 34 35 35 37 38 38 39 39
55 52 52 52 51 51 52 49 49 50 50 50 49 48 49 50 48 45 42 40 40 40 41 42 43 50 52 50 46 48 50 47 38 33 33 34 36 37 38 39 40 39
54 53 55 53 49 50 52 50 49 49 49 50 50 48 48 50 49 47 45 43 42 43 44 43 48 53 53 51 47 47 51 44 38 34 34 36 36 35 36 39 41 40
57 59 59 56 55 52 50 50 49 49 48 50 49 48 47 48 49 48 46 45 45 46 46 44 50 51 54 51 47 48 48 43 40 35 34 37 37 35 36 39 40 40
54 58 61 61 56 52 49 51 51 51 48 48 47 48 46 45 48 49 48 48 48 47 48 46 52 53 53 50 47 47 48 44 40 36 35 37 37 35 36 38 39 43
54 60 62 63 58 51 49 51 50 48 48 47 45 46 46 46 49 51 51 50 49 48 50 51 56 52 51 49 46 47 48 43 41 37 36 36 35 36 37 38 38 39
62 58 58 57 53 50 47 49 52 49 47 47 44 45 47 48 50 50 51 50 50 50 51 52 55 54 48 49 45 46 48 45 40 37 36 37 37 37 37 37 38 37
Wind_Direction
246 235 237 255 268 270 273 281 287 293 293 294 292 284 278 282 291 297 299 304 309 314 319 322 325 326 324 317 312 314 314 315 316 314 311 306 305 305 306 304 302 301
254 246 244 259 267 268 271 279 283 286 286 289 286 279 275 281 289 292 297 304 308 313 317 323 325 327 325 320 313 313 313 314 315 312 312 308 305 306 307 308 308 306
254 255 258 266 269 271 272 276 277 277 279 283 281 275 274 278 285 290 295 301 305 311 316 320 324 326 326 322 314 313 312 313 315 315 314 311 306 307 309 308 305 307
255 258 262 266 263 264 268 271 273 272 274 280 281 274 272 274 281 289 292 300 302 306 312 318 323 325 326 322 314 311 312 311 313 313 315 312 308 307 305 302 300 299
255 260 261 261 260 262 266 270 273 271 274 278 274 271 272 274 279 285 290 295 300 303 308 315 319 323 325 322 314 308 310 310 311 314 316 310 304 302 302 302 303 307
248 253 256 258 258 260 264 267 268 268 272 276 276 269 270 275 277 282 289 294 298 302 307 312 316 320 324 322 312 306 308 308 309 313 314 311 305 302 301 303 308 310
251 250 253 254 257 258 262 263 260 266 272 274 271 269 270 274 278 282 287 293 298 302 305 309 314 318 322 321 313 305 307 308 309 310 312 310 307 306 306 304 306 312
255 253 254 254 256 259 263 263 263 268 273 272 270 269 270 275 279 279 283 292 296 302 304 307 312 317 319 321 316 307 306 306 308 311 312 311 308 307 306 307 306 303
254 255 257 258 260 260 265 267 267 269 271 271 267 265 266 270 275 277 283 291 295 298 304 306 311 315 316 320 319 311 306 306 308 310 310 311 310 310 310 307 305 300
250 253 258 260 262 261 265 269 269 269 269 269 266 262 266 267 272 278 281 288 294 298 303 305 308 311 314 320 319 313 307 306 308 307 307 310 310 311 311 307 306 nan
246 251 257 260 262 262 265 268 269 269 266 268 264 262 264 265 269 274 281 286 291 298 302 305 308 309 312 317 317 313 308 306 307 306 304 307 309 309 309 306 303 nan
249 253 258 261 261 262 265 266 268 269 267 263 263 263 263 265 269 271 277 284 287 293 298 301 304 306 311 316 318 313 309 306 305 306 304 304 307 307 306 302 nan nan
254 259 261 261 260 258 259 262 265 265 266 264 262 264 264 264 269 273 275 280 284 287 294 298 302 304 309 315 317 314 311 308 306 305 302 301 302 305 306 303 301 nan
255 258 257 259 260 258 257 259 260 261 262 261 262 264 265 268 270 272 273 276 281 287 294 296 300 304 308 313 316 313 310 308 305 303 302 302 304 306 307 304 301 nan
251 253 250 252 256 257 256 256 257 259 259 260 263 264 262 265 267 269 271 275 280 285 290 293 296 301 305 310 313 313 309 308 305 305 305 305 305 304 302 301 300 nan
248 249 248 248 250 253 256 256 256 257 259 260 265 266 262 262 265 267 269 273 279 283 287 291 294 296 304 313 313 308 306 304 302 304 304 303 302 300 298 300 301 nan
245 246 248 248 248 249 253 255 256 255 257 261 263 264 262 261 263 267 268 271 278 281 287 290 292 296 306 311 315 312 305 302 302 302 303 302 301 300 298 300 300 299
244 242 245 248 248 249 252 254 255 255 257 260 262 263 260 259 261 265 268 270 272 280 285 288 290 296 303 308 311 309 304 301 299 300 300 301 301 298 296 297 300 299
245 242 240 243 249 251 251 253 255 254 255 258 262 262 259 259 262 264 267 270 272 280 285 286 287 292 300 305 307 305 305 302 299 301 302 303 302 299 298 298 298 298
245 245 242 241 247 251 250 253 255 255 255 256 258 259 258 258 261 266 268 271 274 279 283 283 285 288 298 303 304 302 302 301 299 303 304 303 301 300 298 298 299 300
246 248 246 244 242 245 249 252 255 254 255 254 256 260 261 261 263 267 269 270 273 277 280 282 282 290 295 299 301 300 301 299 298 301 302 301 300 300 300 299 298 300
247 248 247 247 247 246 249 253 255 255 256 254 255 257 258 257 258 261 266 269 273 277 278 282 279 291 294 298 299 299 300 296 296 299 299 298 297 299 299 297 297 300
248 249 249 247 244 240 245 250 252 255 255 253 254 256 259 260 260 265 268 271 274 277 279 281 276 287 293 296 298 299 296 295 294 297 298 297 298 299 298 296 297 301
247 248 248 248 245 240 241 246 250 252 256 256 256 257 259 262 262 264 267 270 274 277 277 277 274 283 292 295 297 301 299 296 294 297 298 297 299 300 296 294 297 307
243 245 247 247 246 242 239 245 249 252 254 255 255 255 256 258 260 262 265 267 271 273 276 275 273 281 291 294 298 301 299 295 295 297 298 300 299 298 294 293 296 301
228 239 246 247 248 249 246 247 247 249 253 255 254 254 254 255 258 261 266 267 268 269 269 272 275 278 287 294 296 299 304 297 295 297 299 298 296 296 293 293 294 296